Home   Weather   Bradford   Past weeks

Flag for United Kingdom Past Weather in Bradford, England, United Kingdom — Yesterday and Last 2 Weeks

Now
48 °F

Scattered clouds.


Feels Like: 46 °F
Forecast: 39 / 54 °F
Wind: 5 mph from West

Location: Leeds And Bradford

Current Time: Apr 28, 2017 at 7:05:08 pm

Latest Report: Apr 28, 2017 at 6:20 pm


Visibility: N/A

Pressure: 29.98 "Hg

Humidity: 71%

Dew Point: 39 °F

Location of BradfordLocation

Past Weather in Bradford — Graph

°F

Bradford Temperature Yesterday

Maximum temperature yesterday: 54 °F (at 1:50 pm)
Minimum temperature yesterday: 37 °F (at 12:20 am)
Average temperature yesterday: 44 °F

High & Low Weather Summary for the Past Weeks

 TemperatureHumidityPressure
High55 °F (Apr 20, 1:50 pm)100% (Apr 14, 7:20 am)30.60 "Hg (Apr 14, 7:20 am)
Low30 °F (Apr 18, 5:50 am)40% (Apr 24, 4:20 pm)29.83 "Hg (Apr 14, 7:20 pm)
Average44 °F79%30.17 "Hg
* Reported Apr 13 5:20 pm — Apr 28 5:50 pm, Bradford, Weather by CustomWeather, © 2017

Note: Actual official high and low records may vary slightly from our data, if they occured in-between our weather recording intervals... More about our weather records

Advertising

Bradford Weather History for the Previous 24 Hours

Scroll right to see more
 ConditionsComfort  
Time TempWeatherWind HumidityBarometerVisibility
5:50 pm
Fri, Apr 28
50 °FPartly sunny.6 mph67%29.98 "HgN/A
5:20 pm50 °FPartly sunny.7 mph62%29.98 "HgN/A
4:50 pm50 °FPartly sunny.8 mph62%29.98 "HgN/A
4:20 pm50 °FPartly sunny.5 mph58%29.98 "HgN/A
3:50 pm50 °FPartly sunny.3 mph58%29.98 "HgN/A
3:20 pm50 °FPartly sunny.3 mph62%29.98 "HgN/A
2:50 pm52 °FPartly sunny.6 mph58%29.98 "HgN/A
2:20 pm52 °FScattered clouds.5 mph54%29.98 "HgN/A
1:50 pm50 °FScattered clouds.7 mph54%29.98 "HgN/A
1:20 pm50 °FPartly sunny.2 mph58%29.98 "HgN/A
12:50 pm50 °FPartly sunny.5 mph58%29.98 "HgN/A
12:20 pm48 °FPartly sunny.7 mph58%30.01 "HgN/A
11:50 am48 °FPartly sunny.6 mph58%30.01 "HgN/A
11:20 am46 °FScattered clouds.6 mph62%30.01 "HgN/A
10:50 am46 °FScattered clouds.8 mph62%30.01 "HgN/A
10:20 am46 °FScattered clouds.7 mph66%30.01 "HgN/A
9:50 am45 °FScattered clouds.3 mph71%30.01 "HgN/A
9:20 am43 °FScattered clouds.5 mph76%30.04 "HgN/A
8:50 am43 °FPartly sunny.3 mph76%30.04 "HgN/A
8:20 am43 °FPartly sunny.8 mph76%30.04 "HgN/A
7:50 am41 °FPartly sunny.7 mph81%30.01 "HgN/A
7:20 am39 °FScattered clouds.6 mph87%30.01 "HgN/A
6:50 am37 °FPassing clouds.8 mph87%30.01 "HgN/A
6:20 am37 °FSunny.6 mph87%30.01 "Hg10 mi
5:50 am37 °FSunny.7 mph87%30.01 "Hg10 mi
5:20 am36 °FClear.8 mph93%30.01 "Hg10 mi
4:50 am37 °FPassing clouds.8 mph87%30.01 "HgN/A
4:20 am37 °FPassing clouds.7 mph87%30.01 "HgN/A
3:50 am39 °FPassing clouds.5 mph87%30.01 "HgN/A
3:20 am41 °FPassing clouds.7 mph81%30.01 "HgN/A
2:50 am41 °FPassing clouds.3 mph81%30.01 "HgN/A
2:20 am41 °FPartly cloudy.6 mph81%30.01 "HgN/A
1:50 am41 °FPartly cloudy.7 mph87%30.01 "HgN/A
1:20 am41 °FPartly cloudy.7 mph93%30.04 "HgN/A
12:50 am41 °FPartly cloudy.7 mph93%30.04 "HgN/A
12:20 am41 °FPartly cloudy.5 mph93%30.01 "HgN/A
11:50 pm
Thu, Apr 27
41 °FPassing clouds.3 mph93%30.01 "HgN/A
11:20 pm43 °FPassing clouds.3 mph87%30.01 "HgN/A
10:50 pm43 °FPassing clouds.5 mph87%30.01 "HgN/A
10:20 pm43 °FScattered showers. Passing clouds.7 mph87%30.01 "HgN/A
9:50 pm43 °FSprinkles. Passing clouds.3 mph93%30.01 "HgN/A
9:20 pm43 °FLight rain. Passing clouds.5 mph100%30.01 "HgN/A
8:50 pm43 °FSprinkles. Passing clouds.8 mph93%30.01 "HgN/A
8:20 pm43 °FSprinkles. Scattered clouds.10 mph93%30.01 "HgN/A
7:50 pm45 °FSprinkles. Broken clouds.9 mph93%29.98 "HgN/A
7:20 pm45 °FSprinkles. Partly sunny.9 mph100%29.98 "HgN/A
Weather by CustomWeather, © 2017

See weather overviewHow to use our weather pages